[[{"header":{"parameterUnit":"m.s-1","parameterCategory":1,"la1":30.2991,"la2":30.254,"lo1":-89.0895,"lo2":-89.0444,"dy":0.0017,"dx":0.0017,"nx":28,"ny":28,"refTime":"2024-04-05T21:00:00:Z","depth":0,"parameterNumber":2,"parameterNumberName":"U-component_of_WINDS"},"data":[0,0,0,0,0,0,0,0,0,0,0,0,0,0,0,0,0,0,0,0,0,0,0,0,0,0,0,0,0,0,0,0,0,0,0,0,0,0,0,0,0,0,0,0,0,0,0,0,0,0,0,0,0,0,0,0,0,0,-2.3407,-2.3406,0,-2.3339,-2.3338,-2.3337,-2.3246,-2.3244,-2.3243,-2.3241,-2.3171,-2.317,-2.317,0,0,0,0,0,0,0,0,0,0,0,0,0,-2.3457,-2.3456,-2.3407,-2.3406,-2.3405,-2.3339,-2.3338,-2.3337,-2.3246,-2.3244,-2.3243,-2.3241,-2.3171,-2.317,-2.317,0,0,0,0,0,0,0,0,0,0,0,0,0,-2.3417,-2.3456,-2.3407,-2.3352,-2.3346,-2.3339,-2.3338,-2.3337,-2.3247,-2.3244,-2.3242,-2.324,-2.3171,-2.317,-2.317,-2.3211,0,0,-2.3167,-2.3167,0,0,0,0,0,0,0,0,-2.3419,-2.3415,-2.3361,-2.3356,-2.3349,-2.3299,-2.333,-2.3295,-2.3247,-2.3284,-2.3241,-2.3239,-2.3215,-2.321,-2.3203,-2.3208,-2.3204,-2.3167,-2.3167,-2.3167,-2.3166,0,0,0,0,0,0,0,-2.3422,-2.3417,-2.338,-2.336,-2.3353,-2.333,-2.3322,-2.3323,-2.3263,-2.3281,-2.3274,-2.3267,-2.3211,-2.3204,-2.32,-2.3203,-2.3167,-2.3167,-2.3166,-2.3166,-2.3239,-2.3241,0,0,0,0,0,0,-2.3433,-2.342,-2.3382,-2.3378,-2.3379,-2.3331,-2.3322,-2.3317,-2.3263,-2.3253,-2.327,-2.3263,-2.3206,-2.3201,-2.3198,-2.3242,-2.3167,-2.3166,-2.3166,-2.3237,-2.3239,-2.3242,0,0,0,0,0,0,-2.3435,-2.3431,-2.3385,-2.3397,-2.339,-2.3333,-2.3328,-2.3317,-2.3309,-2.3254,-2.3243,-2.3273,-2.3204,-2.3199,-2.3208,-2.3238,-2.3166,-2.3165,-2.3234,-2.3237,-2.3241,-2.3332,0,0,0,0,0,0,-2.3436,-2.3432,-2.3447,-2.3398,-2.3389,-2.3397,-2.333,-2.3317,-2.3308,-2.33,-2.3254,-2.3244,-2.3202,-2.321,-2.3208,-2.3236,-2.3164,-2.3231,-2.3235,-2.324,-2.3326,-2.3338,-2.3348,0,0,0,0,0,-2.3439,-2.3475,-2.3448,-2.3444,-2.3407,-2.3399,-2.3394,-2.3344,-2.3311,-2.3326,-2.3291,-2.3246,-2.3236,-2.3212,-2.3208,-2.3237,-2.3229,-2.3234,-2.3239,-2.3321,-2.3336,-2.3348,0,0,0,0,0,0,-2.3528,-2.3467,-2.3437,-2.3459,-2.3435,-2.3384,-2.34,-2.3362,-2.3346,-2.3339,-2.3278,-2.3268,-2.3286,-2.3262,-2.3237,-2.3274,-2.3226,-2.3231,-2.3289,-2.3302,-2.3313,-2.3318,-2.3164,0,0,0,0,0,-2.355,-2.3549,-2.3496,-2.352,-2.351,-2.3458,-2.3452,-2.3417,-2.3389,-2.3378,-2.3344,-2.3319,-2.331,-2.3305,-2.3294,-2.3323,-2.3311,-2.3341,-2.3352,-2.3362,-2.3366,-2.338,-2.3392,-2.3259,-2.3259,-2.3259,0,0,-2.3596,-2.3563,-2.3565,-2.3538,-2.3515,-2.3515,-2.345,-2.3452,-2.3451,-2.3378,-2.3385,-2.336,-2.3328,-2.3347,-2.3354,-2.3328,-2.3401,-2.3368,-2.3377,-2.3376,-2.3386,-2.3399,-2.341,-2.3263,-2.3262,-2.3262,0,0,-2.3679,-2.3654,-2.3671,-2.365,-2.3617,-2.3582,-2.3587,-2.3542,-2.3522,-2.3528,-2.3474,-2.3472,-2.3458,-2.3437,-2.3425,-2.3502,-2.346,-2.35,-2.3559,-2.3573,-2.3583,-2.3592,-2.3619,-2.3629,-2.3505,-2.3506,-2.3506,0,-2.3739,-2.3737,-2.3685,-2.3691,-2.368,-2.3616,-2.3633,-2.3615,-2.358,-2.3573,-2.3545,-2.3527,-2.3501,-2.3514,-2.3534,-2.3526,-2.3529,-2.3504,-2.3586,-2.3594,-2.3602,-2.3627,-2.3637,-2.3511,-2.351,-2.3509,-2.3509,0,-2.3813,-2.3813,-2.3831,-2.3799,-2.3791,-2.3802,-2.3752,-2.375,-2.3715,-2.3684,-2.3691,-2.3658,-2.3639,-2.364,-2.3606,-2.3649,-2.3634,-2.3597,-2.3547,-2.3621,-2.3643,-2.3652,-2.3518,-2.3516,-2.3514,-2.3513,0,0,-2.3949,-2.3889,-2.3897,-2.3882,-2.3841,-2.3839,-2.3848,-2.383,-2.3829,-2.3808,-2.3814,-2.3804,-2.377,-2.3756,-2.3719,-2.3732,-2.3795,-2.3693,-2.3691,-2.3712,-2.384,-2.3867,-2.3879,-2.3767,-2.3769,-2.377,-2.3842,0,-2.4023,-2.4035,-2.3989,-2.4013,-2.4012,-2.3951,-2.3959,-2.3935,-2.3906,-2.3901,-2.3868,-2.3863,-2.3818,-2.3809,-2.3819,-2.3785,-2.3819,-2.3779,-2.3771,-2.3772,-2.378,-2.3891,-2.392,-2.3989,-2.3851,-2.3852,-2.3853,0,-2.4111,-2.4095,-2.4119,-2.4077,-2.4075,-2.4083,-2.4063,-2.4059,-2.4031,-2.4009,-2.3995,-2.3953,-2.3958,-2.3912,-2.3919,-2.3893,-2.3887,-2.387,-2.3871,-2.3867,-2.3816,-2.3889,-2.401,-2.4021,-2.3867,-2.3866,-2.3865,0,-2.4207,-2.4191,-2.4203,-2.4192,-2.4144,-2.4151,-2.4132,-2.4101,-2.4094,-2.4076,-2.4071,-2.4055,-2.4046,-2.4034,-2.3989,-2.3959,-2.4001,-2.395,-2.3982,-2.3984,-2.3993,-2.3992,-2.4114,-2.3991,-2.3991,-2.3991,-2.3991,0,-2.4294,-2.4311,-2.4246,-2.4253,-2.427,-2.4218,-2.4236,-2.421,-2.4184,-2.4185,-2.4132,-2.4134,-2.4075,-2.4071,-2.4036,-2.4047,-2.4043,-2.4025,-2.4016,-2.4029,-2.4032,-2.4024,-2.4017,-2.3994,-2.3993,-2.3993,-2.3992,0,-2.4403,-2.436,-2.4369,-2.4324,-2.4313,-2.4327,-2.4288,-2.4293,-2.4262,-2.4264,-2.4262,-2.4212,-2.4204,-2.4159,-2.414,-2.4117,-2.414,-2.4121,-2.415,-2.4143,-2.4177,-2.4175,-2.4297,-2.431,-2.4181,-2.4182,-2.4183,0,-2.4461,-2.4473,-2.4429,-2.4426,-2.4409,-2.4405,-2.4397,-2.4347,-2.4341,-2.431,-2.4319,-2.4307,-2.4295,-2.4285,-2.4247,-2.4233,-2.4213,-2.4257,-2.421,-2.4224,-2.4213,-2.4212,-2.4213,-2.4266,-2.4268,-2.4269,-2.427,0,-2.4568,-2.4547,-2.4538,-2.4522,-2.4514,-2.4499,-2.448,-2.4481,-2.4425,-2.4421,-2.4413,-2.4404,-2.4386,-2.4374,-2.4354,-2.4333,-2.4293,-2.4286,-2.4292,-2.4306,-2.4322,-2.4313,-2.4176,-2.4283,-2.4282,-2.4281,-2.428,-2.4279,-2.4653,-2.466,-2.4631,-2.4623,-2.4604,-2.4588,-2.459,-2.456,-2.4552,-2.4534,-2.4504,-2.45,-2.4472,-2.4441,-2.4424,-2.442,-2.4396,-2.4406,-2.4408,-2.4411,-2.4418,-2.4324,-2.4416,-2.4415,-2.4415,-2.4415,-2.4414,0,-2.4757,-2.4735,-2.4728,-2.4704,-2.4698,-2.4662,-2.4639,-2.4636,-2.4634,-2.4611,-2.4601,-2.4592,-2.4581,-2.4543,-2.4528,-2.4532,-2.4513,-2.453,-2.4529,-2.4525,-2.444,-2.4435,-2.4546,-2.4546,-2.4546,-2.4546,-2.4546,-2.4546,-2.481,-2.4821,-2.4796,-2.4797,-2.4775,-2.4771,-2.4762,-2.4747,-2.4728,-2.4721,-2.4712,-2.4688,-2.4659,-2.4642,-2.463,-2.4619,-2.4616,-2.4639,-2.4622,-2.4543,-2.4531,-2.4518,-2.4514,-2.4639,-2.4639,-2.4707,-2.4707,-2.4708]},{"header":{"parameterUnit":"m.s-1","parameterCategory":1,"la1":30.2991,"la2":30.254,"lo1":-89.0895,"lo2":-89.0444,"dy":0.0017,"dx":0.0017,"nx":28,"ny":28,"refTime":"2024-04-05T21:00:00:Z","depth":0,"parameterNumber":3,"parameterNumberName":"V-component_of_WINDS"},"data":[0,0,0,0,0,0,0,0,0,0,0,0,0,0,0,0,0,0,0,0,0,0,0,0,0,0,0,0,0,0,0,0,0,0,0,0,0,0,0,0,0,0,0,0,0,0,0,0,0,0,0,0,0,0,0,0,0,0,3.097,3.0971,0,3.0985,3.0985,3.0985,3.0975,3.0974,3.0974,3.0973,3.0986,3.0987,3.0988,0,0,0,0,0,0,0,0,0,0,0,0,0,3.0932,3.0933,3.097,3.0971,3.0971,3.0985,3.0985,3.0985,3.0975,3.0974,3.0974,3.0973,3.0986,3.0987,3.0988,0,0,0,0,0,0,0,0,0,0,0,0,0,3.0948,3.0933,3.097,3.0967,3.0967,3.0985,3.0985,3.0985,3.0975,3.0974,3.0973,3.0973,3.0986,3.0987,3.0988,3.1009,0,0,3.0991,3.0992,0,0,0,0,0,0,0,0,3.0947,3.0949,3.0968,3.0968,3.0967,3.0977,3.0976,3.0993,3.0975,3.0972,3.0973,3.0972,3.0984,3.0985,3.0989,3.1009,3.101,3.0992,3.0992,3.0993,3.0993,0,0,0,0,0,0,0,3.0946,3.0949,3.0976,3.0968,3.0968,3.0965,3.0966,3.0979,3.0981,3.0972,3.0971,3.0973,3.0983,3.0988,3.0989,3.101,3.0992,3.0993,3.0993,3.0994,3.1049,3.1049,0,0,0,0,0,0,3.0946,3.0948,3.0976,3.0977,3.0955,3.0966,3.0968,3.0975,3.0981,3.0982,3.0974,3.0973,3.0986,3.0988,3.099,3.1015,3.0993,3.0994,3.0995,3.1048,3.1049,3.105,0,0,0,0,0,0,3.0945,3.0948,3.0975,3.0962,3.0965,3.0967,3.0975,3.0975,3.098,3.0983,3.0983,3.0978,3.0986,3.0988,3.1004,3.1015,3.0994,3.0995,3.1047,3.1048,3.1049,3.1065,0,0,0,0,0,0,3.0944,3.0948,3.0956,3.0962,3.0966,3.099,3.0976,3.0976,3.0982,3.0981,3.0987,3.0987,3.0985,3.1003,3.1006,3.1016,3.0996,3.1046,3.1048,3.1049,3.1064,3.1067,3.1069,0,0,0,0,0,3.0942,3.096,3.0957,3.096,3.0977,3.0991,3.0993,3.0991,3.0983,3.0991,3.0993,3.0987,3.1014,3.1004,3.1008,3.1019,3.1045,3.1047,3.1049,3.1062,3.1066,3.1069,0,0,0,0,0,0,3.0954,3.096,3.0957,3.0977,3.0983,3.0989,3.0999,3.0995,3.1003,3.1002,3.0999,3.1,3.1017,3.102,3.1009,3.104,3.1028,3.1031,3.1037,3.1041,3.1044,3.1043,3.0997,0,0,0,0,0,3.0959,3.097,3.0975,3.0992,3.0996,3.0997,3.1003,3.1001,3.1007,3.101,3.1013,3.1019,3.1028,3.1035,3.1044,3.1064,3.1065,3.1073,3.1076,3.1078,3.108,3.1091,3.1095,3.1055,3.1055,3.1055,0,0,3.0969,3.0974,3.0981,3.0995,3.0999,3.1011,3.0999,3.1012,3.102,3.1012,3.1027,3.103,3.1036,3.1054,3.1063,3.1057,3.1092,3.1081,3.1082,3.1083,3.1094,3.1097,3.1101,3.1057,3.1056,3.1056,0,0,3.0993,3.0998,3.1013,3.1019,3.1026,3.1027,3.1031,3.1037,3.1038,3.1054,3.1048,3.1058,3.1075,3.1079,3.1084,3.1111,3.1105,3.1114,3.1128,3.1139,3.1142,3.1145,3.1154,3.1158,3.1116,3.1116,3.1116,0,3.1005,3.1022,3.1021,3.1035,3.1041,3.1034,3.1049,3.1054,3.1064,3.1068,3.1062,3.1083,3.1087,3.1106,3.1113,3.1117,3.1121,3.1113,3.1142,3.1145,3.1147,3.1156,3.116,3.1117,3.1117,3.1117,3.1117,0,3.1036,3.1048,3.1059,3.107,3.1077,3.1091,3.1092,3.1099,3.1097,3.1098,3.1115,3.1119,3.1129,3.1134,3.1131,3.1153,3.1149,3.1142,3.1131,3.1152,3.116,3.1164,3.1118,3.1118,3.1118,3.1117,0,0,3.1068,3.1078,3.1082,3.1087,3.1095,3.1104,3.1118,3.1129,3.1135,3.1142,3.1153,3.1168,3.1162,3.1167,3.1165,3.1175,3.1196,3.1167,3.1167,3.1172,3.122,3.1225,3.1229,3.1192,3.1193,3.1194,3.1219,0,3.1092,3.1117,3.1117,3.1139,3.115,3.1145,3.1156,3.1163,3.1164,3.1174,3.1175,3.1186,3.1177,3.118,3.119,3.1191,3.1205,3.1189,3.1202,3.1203,3.1201,3.1233,3.1238,3.1262,3.1223,3.1223,3.1223,0,3.1125,3.1134,3.1158,3.1165,3.1169,3.118,3.119,3.1199,3.1206,3.1206,3.1212,3.1209,3.1223,3.1211,3.1229,3.1219,3.1224,3.1226,3.1226,3.1227,3.1214,3.1235,3.127,3.1273,3.1229,3.1228,3.1228,0,3.1145,3.1163,3.118,3.1184,3.1193,3.1201,3.1204,3.1211,3.1217,3.1225,3.1229,3.1239,3.1244,3.1251,3.1251,3.1242,3.1269,3.1257,3.127,3.127,3.1275,3.1275,3.1312,3.1279,3.1279,3.1279,3.1279,0,3.1173,3.1188,3.119,3.12,3.1216,3.1215,3.1231,3.1234,3.124,3.125,3.1246,3.1256,3.1254,3.1264,3.1263,3.1279,3.1281,3.1281,3.1281,3.1282,3.1282,3.1285,3.1283,3.128,3.128,3.1279,3.1279,0,3.1199,3.1201,3.1219,3.1225,3.1227,3.1239,3.1245,3.1254,3.1256,3.1269,3.1272,3.1274,3.1285,3.1286,3.1298,3.1298,3.1316,3.1314,3.1314,3.1314,3.1326,3.1325,3.1366,3.1371,3.1335,3.1336,3.1336,0,3.1216,3.1228,3.1236,3.1243,3.1248,3.1259,3.1266,3.1265,3.1272,3.1281,3.1289,3.13,3.1309,3.1327,3.1329,3.1339,3.1337,3.1351,3.1338,3.1339,3.1337,3.1336,3.1337,3.1353,3.1353,3.1354,3.1354,0,3.1247,3.1248,3.1258,3.1269,3.1277,3.1285,3.1293,3.1299,3.1299,3.1307,3.1319,3.1326,3.1339,3.135,3.1359,3.1363,3.1358,3.1358,3.1361,3.1362,3.1362,3.1362,3.1321,3.1357,3.1357,3.1356,3.1356,3.1356,3.1269,3.1279,3.1287,3.1299,3.1304,3.1312,3.1321,3.1324,3.1334,3.1345,3.1344,3.1358,3.1364,3.1376,3.138,3.139,3.1385,3.139,3.1391,3.1393,3.1394,3.136,3.1392,3.1392,3.1392,3.1392,3.1392,0,3.13,3.1305,3.1316,3.1327,3.1336,3.1332,3.134,3.1348,3.136,3.1366,3.1375,3.1389,3.1399,3.1403,3.1413,3.142,3.1418,3.1423,3.1422,3.1423,3.1398,3.1394,3.1424,3.1424,3.1424,3.1424,3.1424,3.1424,3.1317,3.1334,3.1335,3.1355,3.1359,3.1373,3.1378,3.1384,3.139,3.1405,3.1414,3.1417,3.1422,3.1433,3.1442,3.1443,3.1447,3.1452,3.1452,3.1428,3.1425,3.1422,3.1418,3.1453,3.1453,3.1476,3.1476,3.1476]}]]